TimeEST,TemperatureF,Dew PointF,Humidity,Sea Level PressureIn,VisibilityMPH,Wind Direction,Wind SpeedMPH,Gust SpeedMPH,PrecipitationIn,Events,Conditions,WindDirDegrees,DateUTC
12:51 AM,-7.1,-11.0,83,29.74,10.0,Calm,Calm,-,N/A,,Partly Cloudy,0,2014-02-27 05:51:00
1:51 AM,-7.1,-11.0,83,29.73,10.0,Calm,Calm,-,N/A,,Mostly Cloudy,0,2014-02-27 06:51:00
2:51 AM,-5.1,-9.9,80,29.69,10.0,Calm,Calm,-,N/A,,Overcast,0,2014-02-27 07:51:00
3:51 AM,-2.0,-7.1,79,29.65,10.0,Calm,Calm,-,N/A,,Overcast,0,2014-02-27 08:51:00
4:51 AM,-0.9,-7.1,75,29.61,10.0,Calm,Calm,-,N/A,,Overcast,0,2014-02-27 09:51:00
5:51 AM,1.9,-8.0,63,29.57,10.0,South,8.1,-,N/A,,Overcast,180,2014-02-27 10:51:00
6:51 AM,3.0,-8.0,60,29.55,10.0,South,3.5,-,N/A,,Overcast,190,2014-02-27 11:51:00
7:51 AM,6.1,-4.0,63,29.54,10.0,SSW,13.8,-,N/A,,Mostly Cloudy,200,2014-02-27 12:51:00
8:24 AM,6.1,-2.9,67,29.41,10.0,SSW,13.8,-,N/A,,Mostly Cloudy,200,2014-02-27 13:24:00
8:51 AM,7.0,-2.0,67,29.52,9.0,North,-9999.0,-,N/A,,Unknown,0,2014-02-27 13:51:00
9:51 AM,9.0,-0.9,64,29.52,6.0,SW,17.3,36.8,N/A,,Haze,220,2014-02-27 14:51:00
10:18 AM,9.0,1.0,70,29.39,2.0,SW,17.3,26.5,0.00,Snow,Light Snow,220,2014-02-27 15:18:00
10:22 AM,9.0,1.9,73,29.39,1.5,SW,17.3,26.5,0.00,Snow,Light Snow,220,2014-02-27 15:22:00
10:27 AM,9.0,1.9,73,29.39,-9999.0,North,-9999.0,-,0.00,,Unknown,0,2014-02-27 15:27:00
10:51 AM,-9999,-9999,N/A,29.39,-9999.0,North,-9999.0,-,0.00,,Unknown,0,2014-02-27 15:51:00
11:31 AM,10.9,1.9,67,29.38,2.0,SSW,18.4,25.3,N/A,,Haze,210,2014-02-27 16:31:00
11:41 AM,10.9,1.9,67,29.38,7.0,SSW,16.1,-,N/A,,Unknown,210,2014-02-27 16:41:00
11:51 AM,12.0,-0.0,59,29.50,3.0,SW,17.3,24.2,N/A,,Haze,220,2014-02-27 16:51:00
12:20 PM,12.0,1.9,64,29.37,2.0,SSW,15.0,27.6,0.00,Snow,Light Snow,210,2014-02-27 17:20:00
12:29 PM,12.0,1.0,61,29.37,4.0,SW,15.0,26.5,0.00,,Haze,230,2014-02-27 17:29:00
12:41 PM,12.0,1.0,61,29.37,2.0,SW,16.1,24.2,0.00,Snow,Light Snow,230,2014-02-27 17:41:00
12:49 PM,12.2,1.4,62,29.37,1.8,WSW,10.4,24.2,0.00,Snow,Light Snow,250,2014-02-27 17:49:00
12:51 PM,12.9,1.9,62,29.49,2.0,WSW,10.4,24.2,0.00,Snow,Light Snow,250,2014-02-27 17:51:00
1:01 PM,12.0,3.9,70,29.38,0.8,West,11.5,21.9,0.00,Snow,Light Snow,260,2014-02-27 18:01:00
1:07 PM,10.9,6.1,81,29.39,0.2,West,10.4,19.6,0.00,Snow,Heavy Snow,270,2014-02-27 18:07:00
1:15 PM,10.9,6.1,81,29.39,0.5,Variable,5.8,16.1,0.00,Snow,Snow,0,2014-02-27 18:15:00
1:20 PM,10.9,5.0,77,29.39,2.0,WNW,10.4,16.1,0.00,Snow,Light Snow,290,2014-02-27 18:20:00
1:30 PM,12.0,5.0,73,29.40,1.0,Variable,5.8,17.3,0.00,Snow,Light Snow,0,2014-02-27 18:30:00
1:37 PM,12.0,6.1,77,29.40,0.8,West,10.4,-,0.00,Snow,Light Snow,270,2014-02-27 18:37:00
1:51 PM,10.9,6.1,81,29.52,1.2,North,-9999.0,-,0.00,Snow,Light Snow,0,2014-02-27 18:51:00
1:58 PM,12.0,3.0,67,29.41,3.0,West,8.1,-,0.00,Snow,Light Snow,260,2014-02-27 18:58:00
2:11 PM,10.9,1.0,64,29.41,6.0,West,8.1,19.6,0.00,,Haze,270,2014-02-27 19:11:00
2:20 PM,10.9,1.9,67,29.41,4.0,WNW,8.1,-,0.00,,Haze,300,2014-02-27 19:20:00
2:34 PM,10.9,1.9,67,29.42,8.0,West,8.1,17.3,0.00,,Overcast,270,2014-02-27 19:34:00
2:51 PM,10.9,1.0,64,29.54,5.0,West,9.2,17.3,0.00,,Haze,270,2014-02-27 19:51:00
3:51 PM,10.0,1.9,70,29.57,4.0,West,8.1,-,N/A,,Haze,260,2014-02-27 20:51:00
4:01 PM,10.0,3.0,73,29.46,2.5,West,8.1,-,0.00,Snow,Light Snow,260,2014-02-27 21:01:00
4:09 PM,10.0,3.0,73,29.46,1.0,WSW,10.4,-,0.00,Snow,Light Snow,240,2014-02-27 21:09:00
4:48 PM,8.6,3.2,79,29.48,4.0,WSW,9.2,-,0.00,Snow,Light Snow,240,2014-02-27 21:48:00
4:51 PM,9.0,1.9,73,29.60,7.0,WSW,9.2,-,0.00,,Overcast,240,2014-02-27 21:51:00
5:51 PM,8.1,1.0,73,29.64,10.0,WSW,9.2,-,N/A,,Overcast,250,2014-02-27 22:51:00
6:12 PM,8.1,1.0,73,29.54,3.0,WSW,8.1,-,0.00,Snow,Light Snow,250,2014-02-27 23:12:00
6:25 PM,8.1,1.9,76,29.56,1.8,WSW,10.4,-,0.00,Snow,Light Snow,240,2014-02-27 23:25:00
6:51 PM,7.0,-0.9,70,29.70,2.5,WSW,17.3,24.2,0.00,Snow,Light Snow,250,2014-02-27 23:51:00
6:56 PM,7.0,-4.0,61,29.59,3.0,WSW,17.3,25.3,0.00,,Haze,250,2014-02-27 23:56:00
7:51 PM,5.0,-9.0,52,29.74,9.0,WSW,16.1,23.0,0.00,,Mostly Cloudy,240,2014-02-28 00:51:00
8:51 PM,1.0,-14.1,49,29.80,8.0,WSW,13.8,25.3,N/A,,Clear,240,2014-02-28 01:51:00
9:27 PM,-0.0,-11.9,57,29.71,10.0,WSW,17.3,23.0,N/A,,Mostly Cloudy,240,2014-02-28 02:27:00
9:51 PM,-0.9,-9.9,66,29.84,9.0,WSW,13.8,20.7,N/A,,Overcast,240,2014-02-28 02:51:00
10:08 PM,-0.9,-9.9,66,29.74,7.0,WSW,10.4,-,N/A,,Overcast,240,2014-02-28 03:08:00
10:51 PM,-0.9,-8.0,72,29.75,4.0,West,10.4,-,N/A,,Haze,260,2014-02-28 03:51:00
11:51 PM,-2.0,-9.0,72,29.91,3.0,WSW,9.2,-,N/A,,Haze,240,2014-02-28 04:51:00